Simultaneous Nadir Overpasses (SNOs) Predictions

Prediction of SNOs between METOP-B and NOAA-19 Satellite Orbit:

Table of predicted SNOs for the next 14.0 days since TLE Epoch: 3/29/2013
Index Date (METOP-B) Time (METOP-B) Lat,Lon (METOP-B) SZA (METOP-B ) Date (NOAA-19) Time (NOAA-19) Lat,Lon (NOAA-19) SZA (NOAA-19 ) Distance(km) Time Diff (sec)
1 04/04/2013 20:07:38 -73.37, 51.65 112.58 04/04/2013 20:06:24 -73.39, 51.12 112.52 17.20 74
2 04/04/2013 20:58:20 73.22,-141.35 67.27 04/04/2013 20:57:22 73.23,-141.26 67.30 3.35 58
3 04/04/2013 21:49:03 -73.20, 25.93 112.76 04/04/2013 21:48:25 -73.21, 26.02 112.74 2.96 38
4 04/04/2013 22:39:42 73.20,-166.74 67.23 04/04/2013 22:39:26 73.20,-166.70 67.23 1.17 16
5 04/04/2013 23:30:25 -73.18, 0.55 112.80 04/04/2013 23:30:29 -73.18, 0.57 112.81 0.74 4
6
